Location: Acequia del Cap
(41.7000°N, 0.6167°E)
Time: 01:26:57
(UTC+00:00)

Cosmos 724 - Pass Details

Date: 07 August 2020
Orbit: 856 x 939 km, 65.6° (Epoch: 22 September)

Event Time Altitude Azimuth Distance (km) Brightness Sun altitude
Rises 03:28:36 0° 328° (NNW) 3,517 7.5 -15.1°
Reaches altitude 10° 03:31:05 10° 329° (NNW) 2,586 6.8 -14.8°
Maximum altitude 03:37:08 86° 59° (ENE) 923 4.4 -13.9°
Drops below altitude 10° 03:43:16 10° 148° (SSE) 2,624 6.7 -13.0°
Sets 03:45:48 0° 149° (SSE) 3,571 7.4 -12.6°
